Weather History for Port Angeles, WA

Change the Weather History Date:

Wednesday, December 11, 2013

  Actual Average Record
Temperature  
Mean Temperature 34 °F -  
Max Temperature 39 °F 46 °F 55 °F (1950)
Min Temperature 30 °F 35 °F 24 °F (1949)
Degree Days  
Heating Degree Days 30    
Moisture  
Dew Point 31 °F    
Average Humidity 88    
Maximum Humidity 96    
Minimum Humidity 79    
Precipitation  
Precipitation 0.00 in - - ()
Sea Level Pressure  
Sea Level Pressure 30.29 in    
Wind  
Wind Speed 4 mph (SSW)    
Max Wind Speed 8 mph    
Max Gust Speed -    
Visibility 10 miles    
Events      
Averages and records for this station are not official NWS values.
T = Trace of Precipitation, MM = Missing Value Source: NWS Daily Summary

Daily Weather History Graph

Daily Weather History Graph

Search for Another Location

Airport:

Trip Planner

Search our weather history database for the weather conditions in past years. The results will help you decide how hot, cold, wet, or windy it might be!

Date:

Astronomy

Dec. 11, 2013 Rise Set
Actual Time 7:54 AM PST 4:20 PM PST
Civil Twilight 7:18 AM PST 4:56 PM PST
Nautical Twilight 6:38 AM PST 5:36 PM PST
Astronomical Twilight 6:00 AM PST 6:14 PM PST
Moon 1:15 PM PST (12/11) 2:00 AM PST (12/11)
Length of Visible Light 9h 38m
Length of Day
8h 25m
Waxing Gibbous, 72% of the Moon is Illuminated
Dec 11
Waxing Gibbous
Dec 17
Full
Dec 25
Last Quarter
Jan 1
New
Jan 7
First Quarter

Hourly Weather History & Observations

Time (PST) Temp. Windchill Dew Point Humidity Pressure Visibility Wind Dir Wind Speed Gust Speed Precip Events Conditions
12:53 AM 35.1 °F 31.0 °F 32.0 °F 89% 30.42 in 10.0 mi WSW 4.6 mph - N/A   Overcast
1:53 AM 35.1 °F 31.0 °F 32.0 °F 89% 30.40 in 10.0 mi SW 4.6 mph - N/A   Overcast
2:12 AM 32.0 °F 28.7 °F 30.0 °F 92% 30.39 in 10.0 mi SE 3.5 mph - N/A   Scattered Clouds
2:23 AM 32.0 °F 27.5 °F 30.9 °F 96% 30.38 in 10.0 mi SE 4.6 mph - N/A   Mostly Cloudy
2:53 AM 32.0 °F 28.7 °F 30.0 °F 92% 30.39 in 10.0 mi SSW 3.5 mph - N/A   Overcast
3:53 AM 30.9 °F 25.2 °F 28.9 °F 92% 30.37 in 10.0 mi WSW 5.8 mph - N/A   Mostly Cloudy
4:53 AM 32.0 °F 24.8 °F 28.9 °F 88% 30.36 in 10.0 mi SW 8.1 mph - N/A   Scattered Clouds
5:31 AM 30.9 °F 23.5 °F 28.0 °F 89% 30.34 in 10.0 mi SW 8.1 mph - N/A   Scattered Clouds
5:40 AM 32.0 °F 25.6 °F 28.9 °F 88% 30.34 in 10.0 mi SW 6.9 mph - N/A   Mostly Cloudy
5:53 AM 32.0 °F 25.6 °F 30.0 °F 92% 30.35 in 10.0 mi WSW 6.9 mph - N/A   Overcast
6:27 AM 32.0 °F - 28.9 °F 88% 30.33 in 10.0 mi North - - N/A   Overcast
6:53 AM 30.9 °F - 28.9 °F 92% 30.35 in 10.0 mi North - - N/A   Overcast
7:53 AM 32.0 °F 26.4 °F 30.0 °F 92% 30.35 in 10.0 mi SW 5.8 mph - N/A   Overcast
8:53 AM 35.1 °F 30.1 °F 30.9 °F 85% 30.35 in 10.0 mi SW 5.8 mph - N/A   Overcast
9:53 AM 37.0 °F 34.5 °F 32.0 °F 82% 30.36 in 10.0 mi WSW 3.5 mph - N/A   Overcast
10:53 AM 39.9 °F - 34.0 °F 79% 30.35 in 10.0 mi Calm Calm - N/A   Overcast
11:43 AM 39.9 °F 34.5 °F 34.0 °F 79% 30.30 in 10.0 mi ESE 8.1 mph - N/A   Mostly Cloudy
11:53 AM 39.9 °F 37.8 °F 34.0 °F 79% 30.30 in 10.0 mi East 3.5 mph - N/A   Scattered Clouds
12:53 PM 39.9 °F 36.7 °F 34.0 °F 79% 30.30 in 10.0 mi NNE 4.6 mph - N/A   Clear
1:53 PM 39.9 °F - 34.0 °F 79% 30.28 in 10.0 mi Calm Calm - N/A   Clear
2:53 PM 39.0 °F - 33.1 °F 79% 30.26 in 10.0 mi Calm Calm - N/A   Clear
3:53 PM 37.9 °F - 33.1 °F 83% 30.26 in 10.0 mi Calm Calm - N/A   Clear
4:53 PM 34.0 °F 29.8 °F 30.9 °F 89% 30.24 in 10.0 mi South 4.6 mph - N/A   Clear
5:42 PM 33.1 °F 27.7 °F 30.0 °F 89% 30.23 in 10.0 mi SW 5.8 mph - N/A   Mostly Cloudy
5:53 PM 32.0 °F 27.5 °F 30.9 °F 96% 30.23 in 10.0 mi SW 4.6 mph - N/A   Mostly Cloudy
6:12 PM 33.1 °F 27.7 °F 30.9 °F 92% 30.23 in 10.0 mi SW 5.8 mph - N/A   Overcast
6:53 PM 32.0 °F - 30.0 °F 92% 30.23 in 10.0 mi Calm Calm - N/A   Mostly Cloudy
7:15 PM 30.9 °F - 28.9 °F 92% 30.21 in 10.0 mi Calm Calm - N/A   Scattered Clouds
7:30 PM 33.1 °F 28.7 °F 30.0 °F 89% 30.21 in 10.0 mi SW 4.6 mph - N/A   Mostly Cloudy
7:53 PM 33.1 °F - 30.9 °F 92% 30.22 in 10.0 mi Calm Calm - N/A   Overcast
8:53 PM 35.1 °F 31.0 °F 32.0 °F 89% 30.21 in 10.0 mi SW 4.6 mph - N/A   Overcast
9:21 PM 35.1 °F - 32.0 °F 89% 30.19 in 10.0 mi Calm Calm - N/A   Overcast
9:53 PM 35.1 °F 31.0 °F 32.0 °F 89% 30.20 in 10.0 mi SSW 4.6 mph - N/A   Overcast
10:06 PM 35.1 °F 32.2 °F 32.0 °F 89% 30.18 in 10.0 mi SSE 3.5 mph - N/A   Overcast
10:53 PM 34.0 °F - 30.9 °F 89% 30.17 in 10.0 mi Calm Calm - N/A   Mostly Cloudy
11:07 PM 33.1 °F - 30.0 °F 89% 30.16 in 10.0 mi Calm Calm - N/A   Partly Cloudy
11:53 PM 30.9 °F 24.3 °F 28.9 °F 92% 30.15 in 10.0 mi SW 6.9 mph - N/A   Mostly Cloudy